FLOCK 1C 8

导读

FLOCK 1C 8是美国于2014年6月19日发射的小型遥感卫星,隶属于FLOCK卫星星座。该星座由Planet Labs公司部署,依托多星组网模式,实现高频率全球对地观测,提供高分辨率光学遥感数据。它服务于农业监测、灾害评估、城市规划等领域,推动了商业遥感的普及化发展,是全球微小卫星遥感应用的典型代表。

Basic Information
目录编号:
40040
目录名称:
FLOCK 1C 8
国际标识:
2014-033AG
轨道中心:
EARTH
卫星名称:
FLOCK 1C 8
卫星全名:
--
卫星状态:
已陨落 最后检测时间 2024-12-17
发射日期:
2014-06-19 UTC
国别 :
美国 (US)
星等 :
--
Orbit Information
数据来源 国际轨道数据
星历时间: 2024-12-15T04:16:09+0800
轨道信息已过期590天
半长轴: 6550.716km
偏心率: 0.0005492
轨道倾角: 98.039°
近地点辐角 235.142°
升交点赤经 18.534°
平近点角 124.936°
近地点: 168.983km
远地点: 176.179km
周期: 87.941分钟
每日圈数: 16.374561
Detailed Information
使用方式:
暂无